BADR-4                  
1 29526U 06051A   19261.15442946  .00000141  00000-0  00000+0 0  9995
2 29526   0.0648 326.8662 0002910 259.6725 211.8613  1.00274852 47186
BREEZE-M R/B            
1 29527U 06051B   19260.33978807 -.00000072  00000-0  00000-0 0  9990
2 29527  13.6890 129.9044 6316579  49.8610 350.4528  2.09458743 98318
BREEZE-M DEB [TANK]     
1 29528U 06051C   19257.14328889  .00000083  00000-0  56199-3 0  9999
2 29528  51.1166 198.3425 6040123  65.9200   7.1223  3.64253031170963